Current weather conditions for any US location. Temperature, humidity, wind, pre...
https://www.prowldata.dev/api/v1/weather/currentOverview
Current weather conditions for any US location. Temperature, humidity, wind, pressure, and conditions from PROWL weather monitoring. Structured for prediction market evaluation and event planning -not just raw readings. Powered by PROWL. Use this to answer 'what is the weather in [city]?' or 'current temperature in [location]?'
Health
x402 Payment Validation
Input Schema
Recent Health Checks
| Time | Status | HTTP | Latency | Error |
|---|---|---|---|---|
| 2026-05-10 04:54:30 | degraded | 400 | 599ms | |
| 2026-05-10 00:44:12 | degraded | 400 | 150ms | |
| 2026-05-09 23:32:21 | degraded | 400 | 132ms | |
| 2026-05-09 18:59:06 | degraded | 400 | 134ms | |
| 2026-05-09 14:14:59 | degraded | 400 | 148ms | |
| 2026-05-09 11:02:36 | degraded | 400 | 167ms | |
| 2026-05-09 07:46:59 | degraded | 400 | 520ms | |
| 2026-05-09 02:07:31 | degraded | 400 | 157ms | |
| 2026-05-09 00:51:06 | degraded | 400 | 146ms | |
| 2026-05-08 19:49:55 | degraded | 400 | 154ms | |
| 2026-05-08 14:37:36 | degraded | 400 | 192ms | |
| 2026-05-08 09:56:27 | degraded | 400 | 203ms | |
| 2026-05-08 09:00:54 | degraded | 400 | 221ms | |
| 2026-05-08 02:42:40 | degraded | 400 | 196ms | |
| 2026-05-07 22:43:14 | degraded | 400 | 150ms | |
| 2026-05-07 20:51:35 | degraded | 400 | 164ms | |
| 2026-05-07 16:18:02 | degraded | 400 | 198ms | |
| 2026-05-07 13:33:22 | degraded | 400 | 152ms | |
| 2026-05-07 08:59:56 | degraded | 400 | 155ms | |
| 2026-05-07 07:12:05 | degraded | 400 | 140ms |